Location: Beuerbach
(48.1459°N, 10.9174°E)
Time: 19:54:35
(UTC+00:00)

CZ-2D R/B - Pass Details

Date: 23 May 2024
Orbit: 790 x 843 km, 98.8° (Epoch: 24 June)

Event Time Altitude Azimuth Distance (km) Brightness Sun altitude
Rises 01:50:31 0° 11° (NNE) 3,414 6.6 -12.7°
Reaches altitude 10° 01:52:55 10° 8° (N) 2,473 5.6 -12.5°
Maximum altitude 01:58:19 60° 290° (WNW) 957 2.4 -11.9°
Enters shadow 02:02:44 15° 214° (SW) 2,097 3.6 -11.4°
